Location: Baia Mare
(47.6567°N, 23.5850°E)
Time: 12:06:56
(UTC+03:00)

ISS - Pass Details

Date: 22 September 2019
Orbit: 418 x 420 km, 51.6° (Epoch: 10 August)

Event Time Altitude Azimuth Distance (km) Brightness Sun altitude
Rises 20:34:18 0° 241° (WSW) 2,413 0.9 -12.5°
Reaches altitude 10° 20:36:25 10° 240° (WSW) 1,549 -0.2 -12.8°
Maximum altitude 20:39:54 78° 154° (SSE) 454 -3.7 -13.4°
Enters shadow 20:42:12 20° 69° (ENE) 1,077 -2.2 -13.8°
